カタログに戻る

STARLINK-37069

運用中通信SSO
NORAD 68158·PAYLOAD·🇺🇸 United States

打ち上げ Mar 13, 2026 から Vandenberg Space Force Base

Loading…

次のパス (今後24時間)

TLE

最新Source: CelesTrak SupGP

元期: Sep 14, 2026, 22:55 UTC

1 68158C 26049S   26257.95534722  .00044785  00000+0  13903-2 0  2570
2 68158  97.2841 277.9401 0001572  86.9674  69.9142 15.33414451    19

AllMySatでSTARLINK-37069をリアルタイム追跡

Download on the App Store